Tracking 19638 objects as of 19-Apr-2019
HD Live streaming from Space Station
objects crossing your sky now

CZ-4 DEB

Track CZ-4 DEB now!
10-day predictions


NORAD ID: 26132
Int'l Code: 1999-057U
Perigee: 686.8 km
Apogee: 890.1 km
Inclination: 98.8 °
Period: 100.5 minutes
Semi major axis: 7159 km
RCS: 0.038 m2 (small)
Launch date: October 14, 1999
Source: People's Republic of China (PRC)
Launch site: Taiyaun Space Center, China (TSC)

Note: This is SATELLITE DEBRIS
aabbcc
Your satellite tracking list
Your tracking list is empty




NASA's NSSDC Master Catalog

Two Line Element Set (TLE):
1 26132U 99057U   19108.68074065 +.00000550 +00000-0 +19482-3 0  9996
2 26132 098.8306 112.3836 0141962 134.6357 288.7322 14.33125229991436
Source of the keplerian elements: AFSPC